Regional Weather Roundup
Issued by NWS Albany, NY

Home | Current Version | Previous Version | Text Only | Print | Product List | Glossary On
Versions: 1 2 3 4 5 6 7 8 9 10 11 12 13 14 15 16 17 18 19 20 21 22 23 24 25 26 27
000
ASUS41 KALY 072110
RWRALY

NEW YORK STATE HOURLY WEATHER ROUNDUP
NATIONAL WEATHER SERVICE ALBANY NY
400 PM EST WED DEC 07 2016

NOTE: "FAIR" INDICATES FEW OR NO CLOUDS BELOW 12,000 FEET WITH NO
SIGNIFICANT WEATHER AND/OR NO OBSTRUCTIONS TO VISIBILITY.

NYZ032-033-038>043-046>054-057>066-NYZ062>081-082-084-072200-
EAST


CITY           SKY/WX    TMP DP  RH WIND       PRES   REMARKS
ALBANY         MOCLDY    38  35  89 CALM      29.98R
GLENS FALLS    PTCLDY    39  33  79 S8        29.95S WCI  33
POUGHKEEPSIE   CLOUDY    42  37  82 CALM      29.97F
NEWBURGH       PTCLDY    41  37  87 W7        29.98S
MONTGOMERY     PTCLDY    42  37  82 CALM      29.97S
WHITE PLAINS   MOCLDY    42  37  82 NW5       29.97S
ISLIP          CLOUDY    44  39  82 W6        29.98R
NEW YORK CITY  CLOUDY    47  39  74 NW8       29.98S
CENTRAL PARK   CLOUDY    45  38  76 CALM      30.01R
$$

NYZ005>009-017-018-044>046-055-056-072200-
CENTRAL


CITY           SKY/WX    TMP DP  RH WIND       PRES   REMARKS
FULTON         MOCLDY    40  28  62 W12       29.99R WCI  33
SYRACUSE       CLOUDY    39  29  67 W10       29.98R WCI  32
ROME           PTCLDY    39  29  67 W13G18    29.99R WCI  31
ELMIRA         PTCLDY    42  25  50 W7        29.98R
BINGHAMTON     CLEAR     35  27  72 W5        29.95R WCI  31
MONTICELLO     CLEAR     36  34  93 W3        29.97R
$$

NYZ026>034-041>043-087-072200-
NORTH


CITY           SKY/WX    TMP DP  RH WIND       PRES   REMARKS
WATERTOWN      CLOUDY    38  29  70 W16G30    29.97R WCI  29
FORT DRUM      NOT AVBL
OGDENSBURG     MOCLDY    39  29  68 SW9G16    29.92R WCI  33
MASSENA        CLOUDY    40  27  59 SW9       29.92R WCI  34
SARANAC LAKE   CLOUDY    33  27  78 SW10G20   29.86R WCI  25
PLATTSBURGH    PTCLDY    39  30  70 VRB6      29.91R WCI  35
$$

NYZ001>004-010>016-019>021-085-072200-
WEST


CITY           SKY/WX    TMP DP  RH WIND       PRES   REMARKS
NIAGARA FALLS  MOCLDY    40  28  62 SW20G29   29.96F WCI  30
BUFFALO        MOCLDY    39  28  64 SW16G24   29.96S WCI  30
DUNKIRK        PTCLDY    37  27  67 SW14G21   30.00F WCI  28
JAMESTOWN      PTCLDY    34  21  60 W8        29.97S WCI  27
WELLSVILLE     CLEAR     37  22  54 W9        29.96R WCI  30
ROCHESTER      CLOUDY    40  31  70 SW14      29.98R WCI  32
PENN YAN       PTCLDY    39  24  55 W9        29.99R WCI  33
$$

             KEY
       WCI = WIND CHILL INDEX
       VSB = VISIBILITY
       HX  = HEAT INDEX
$$




USA.gov is the U.S. government's official web portal to all federal, state and local government web resources and services.